Location: Rancho Del Sol Observatory
(38.7214°N, 120.6350°W)
Time: 00:05:05
(UTC-08:00)

Transit 2A - All Passes

Search period start: 22 January 2020 00:00
Search period end: 01 February 2020 00:00
Orbit: 601 x 958 km, 66.7° (Epoch: 21 January)

Date Brightness Start Highest point End Pass type
(mag) Time Alt. Az. Time Alt. Az. Time Alt. Az.
22 Jan - 05:14:57 10° NNW 05:19:37 50° ENE 05:24:44 10° SE visible
22 Jan - 06:59:01 10° WNW 07:02:29 19° WSW 07:06:09 10° SSW daylight
22 Jan - 19:54:18 10° S 19:58:39 52° ESE 20:02:53 10° NE visible
22 Jan - 21:39:23 10° W 21:42:04 16° NW 21:44:45 10° N night (unlit)
23 Jan - 04:41:03 10° N 04:45:25 34° NE 04:50:09 10° ESE visible
23 Jan - 06:24:15 10° NW 06:28:28 29° WSW 06:33:03 10° S visible
23 Jan - 19:20:38 10° S 19:24:37 32° ESE 19:28:30 10° NE visible
23 Jan - 21:04:14 10° WSW 21:07:46 23° NW 21:11:15 10° N visible
24 Jan - 04:07:18 10° N 04:11:10 24° NE 04:15:18 10° ESE visible
24 Jan - 05:49:47 10° NW 05:54:26 43° WSW 05:59:31 10° S visible
24 Jan - 18:47:20 10° SSE 18:50:38 20° ESE 18:53:52 10° ENE visible
24 Jan - 20:29:28 10° WSW 20:33:30 34° NW 20:37:29 10° N visible
25 Jan - 03:33:45 10° N 03:36:52 17° NE 03:40:07 10° E visible
25 Jan - 05:15:31 10° NW 05:20:21 67° WSW 05:25:43 10° SSE visible
25 Jan - 18:14:44 10° SE 18:16:41 13° ESE 18:18:35 10° E visible
25 Jan - 19:54:58 10° SW 19:59:19 53° WNW 20:03:34 10° NNE visible
26 Jan - 03:00:43 10° NNE 03:02:29 12° NE 03:04:17 10° ENE visible
26 Jan - 04:41:22 10° NNW 04:46:15 82° ENE 04:51:39 10° SSE visible
26 Jan - 06:27:25 10° W 06:28:53 11° WSW 06:30:24 10° WSW visible
26 Jan - 19:20:44 10° SSW 19:25:11 86° WNW 19:29:32 10° NNE visible
27 Jan - 04:07:20 10° NNW 04:12:06 55° ENE 04:17:21 10° SE visible
27 Jan - 05:51:37 10° WNW 05:54:56 18° WSW 05:58:26 10° SSW visible
27 Jan - 18:46:44 10° SSW 18:51:05 58° ESE 18:55:21 10° NE visible
27 Jan - 20:32:08 10° W 20:34:34 14° NW 20:37:01 10° NNW visible
28 Jan - 03:33:25 10° NNW 03:37:55 37° NE 03:42:50 10° ESE visible
28 Jan - 05:16:46 10° NW 05:20:57 27° WSW 05:25:26 10° SSW visible
28 Jan - 18:12:59 10° S 18:17:03 35° ESE 18:21:01 10° NE visible
28 Jan - 19:56:54 10° WSW 20:00:15 21° NW 20:03:35 10° N visible
29 Jan - 02:59:38 10° N 03:03:41 26° NE 03:08:03 10° ESE visible
29 Jan - 04:42:16 10° NW 04:46:54 40° WSW 04:51:59 10° S visible
29 Jan - 17:39:36 10° SSE 17:43:03 22° ESE 17:46:26 10° ENE visible
29 Jan - 19:22:03 10° WSW 19:25:58 31° NW 19:29:52 10° N visible
30 Jan - 02:26:01 10° N 02:29:24 18° NE 02:32:57 10° E night (unlit)
30 Jan - 04:07:57 10° NW 04:12:50 61° WSW 04:18:13 10° SSE visible
30 Jan - 17:06:49 10° SE 17:09:06 14° ESE 17:11:22 10° ENE daylight
30 Jan - 18:47:30 10° SW 18:51:46 48° WNW 18:55:59 10° NNE visible
31 Jan - 01:52:46 10° NNE 01:55:01 13° NE 01:57:20 10° ENE night (unlit)
31 Jan - 03:33:47 10° NNW 03:38:44 89° ENE 03:44:12 10° SSE visible
31 Jan - 05:20:41 10° W 05:21:20 10° WSW 05:21:59 10° WSW visible
31 Jan - 18:13:12 10° SSW 18:17:38 78° WNW 18:21:58 10° NNE visible
